www.pogodaiklimat.ru

Погода и климат >> Архив погоды >> Россия >> Приморский край >> Гамов


ПОГОДА в Гамове

  • Прогноз погоды в Гамове
  • Монитор погоды в Гамове

АРХИВ ПОГОДЫ в Гамове

Время (UTC), дата Ветер
(напр.,м/с)
 
Видим.   Явления Облачность Т
(С)
Тd
(С)
f
(%)
Тe
(С)
Тes
(С)
Комфортность P
(гПа)
Po
(гПа)
Тmin
(С)
Tmax
(С)
R
(мм)
R24
(мм)
S
(см)
18 11.04 С 3 н/о н/о +5.9 -3.2 52 +3 1015.9 1009.3
21 11.04 С 2 н/о н/о +4.5 -4.1 54 +2 +2 1013.9 1008.7 +3.8
00 12.04 С 1 н/о н/о +6.5 -3.4 49 +6 1017.2 1010.7
03 12.04 С 3 н/о н/о +7.3 +0.1 60 +5 1017.2 1010.7
06 12.04 С 6 н/о н/о +8.9 -0.7 51 +6 1015.8 1009.3
09 12.04 С 11-15
{16}
н/о н/о +7.8 -0.2 57 +3 +3 1015.8 1009.3 +9.4
12 12.04 С 10-13
{19}
н/о н/о +7.3 +0.8 63 +2 +2 1014.7 1009.6
15 12.04 н/о н/о +7.4 +4.4 81< 1017.2 1010.7
18 12.04 С 7 н/о н/о +7.1 +5.2 88 +2 1017.2 1010.7
21 12.04 С 5
{11}
н/о н/о +6.3 +5.5 95 +2 +2 1014.8 1009.7 +5.9
00 13.04 С 1 н/о н/о +4.7 +4.4 98 +3 1017.3 1010.7 +3.6
03 13.04 С 2 н/о н/о +6.8 +5.0 88 +5 1015.8 1009.3
06 13.04 С 1 н/о н/о +7.0 +5.0 87 +6 1014.5 1008.0
09 13.04 С 6 н/о н/о +8.3 +3.7 73 +4 +4 1014.5 1008.0 +10.2
12 13.04 С 2 н/о н/о +4.8 +3.9 94 +2 1017.3 1010.7
15 13.04 С 3 н/о н/о +6.5 +4.2 85 +3 1017.2 1010.7
18 13.04 С 2 н/о н/о +7.1 +3.5 78 +5 1015.8 1009.3
21 13.04 С 3 н/о н/о +5.0 +4.0 93 +1 +1 1012.5 1007.3 +4.3 1
00 14.04 С 2 н/о н/о +5.8 +2.1 77 +3 1014.5 1008.0
03 14.04 С 3 н/о н/о +5.7 +2.3 79 +2 1013.2 1006.7
06 14.04 С 1 н/о н/о +6.3 +4.0 85 +5 1010.5 1004.0
09 14.04 С 2 н/о н/о +5.9 +2.5 79 +4 +4 1010.5 1004.0 +6.8 2
12 14.04 С 1 н/о н/о +5.1 +1.9 80 +4 1011.8 1005.3
15 14.04 С 3 н/о н/о +7.1 -3.2 48 +5 1013.2 1006.7
18 14.04 С 3 н/о н/о +7.2 -2.5 50 +5 1013.2 1006.7
21 14.04 С 6 н/о н/о +7.0 -4.2 45 +3 +3 1011.1 1006.0 +4.9
00 15.04 С 7 н/о н/о +8.1 -2.8 46 +4 1015.8 1009.3
03 15.04 С 8 н/о н/о +11.6 -4.5 32 +9 1014.4 1008.0
06 15.04 н/о н/о +9.1 -1.3 48< 1013.2 1006.7
09 15.04 С 7-11
{16}
н/о н/о +7.6 +1.0 63 +3 +3 1014.5 1008.0 +12.8
12 15.04 С 11-13
{16}
н/о н/о +6.9 +2.1 71 +1 +1 1012.7 1007.6
15 15.04 н/о н/о +7.9 +3.4 73< 1014.5 1008.0
18 15.04 С 7 н/о н/о +7.1 +5.6 90 +2 1013.2 1006.7
21 15.04 С 2 н/о н/о +4.4 +3.9 97 +1 +1 1010.7 1005.6 +4.2
00 16.04 С 3 н/о н/о +4.9 +4.8 99 +1 1013.2 1006.7 +3.5
03 16.04 С 3 н/о н/о +6.5 +4.8 89 +3 1011.8 1005.3
06 16.04 С 6 н/о н/о +6.5 +4.5 87 +2 1010.5 1004.0
09 16.04 С 4 н/о н/о +8.5 +4.5 76 +5 +5 1009.1 1002.7 +9.0
12 16.04 С 8-11
{11}
н/о н/о +9.9 +3.9 66 +6 +6 1008.1 1003.1
15 16.04 С 2 н/о н/о +5.8 +3.5 85 +3 1010.5 1004.0
18 16.04 С 2 н/о н/о +5.9 +3.6 85 +3 1010.5 1004.0
21 16.04 С 3
{12}
н/о н/о +6.0 +3.3 83 +3 +3 1010.5 1004.0 +4.2
00 17.04 С 4 н/о н/о +7.9 +3.2 72 +5 1010.5 1004.0
03 17.04 СВ 1 н/о н/о +9.0 +3.4 68 +9 1010.4 1004.0
06 17.04 СВ 7 н/о н/о +12.8 +2.6 50 +10 1006.3 1000.0
09 17.04 СВ 6
{10}
н/о н/о +9.7 +4.5 70 +6 +6 1006.4 1000.0 +14.6
12 17.04 СВ 1 н/о н/о +9.3 +4.7 73 +9 1005.1 998.7
15 17.04 СВ 1 н/о н/о +6.9 +4.2 83 +6 1003.7 997.3
18 17.04 СВ 4 н/о н/о +5.8 +4.3 90 +2 1002.5 996.0
21 17.04 СВ 2 н/о н/о +6.8 +3.4 79 +5 +5 1003.7 997.3 +5.6
00 18.04 СВ 2 н/о н/о +6.1 +4.1 87 +4 1003.8 997.3 +5.5
03 18.04 н/о н/о +12.8 -1.2 38< 1006.3 1000.0
06 18.04 н/о н/о +9.7 -3.2 40< 1009.1 1002.7
09 18.04 СВ 8-13
{23}
н/о н/о +8.8 -5.4 36 +5 +5 1013.2 1006.7 +14.2
12 18.04 СВ 4 н/о н/о +7.8 -8.7 30 +5 1015.8 1009.3

 

Местоположение метеостанции Гамов (Приморский край, Россия): широта 42.55 долгота 131.22 высота над уровнем моря 53 м.

В архиве по умолчанию представлена погода в Гамове за последнюю неделю. Архивные данные за месяц целиком и за предыдущие месяцы, начиная с января 2011 года, Вы можете получить, выбрав интересующий диапазон дат из раскрывающегося списка и нажав кнопку "Ввод!".


*Определитесь, кто Вы:
робот инопланетянин человек

Внимание! Время в таблицах - всемирное. Для получения местного времени необходимо прибавить поправку, которая равна 10 ч.

Смотрите также архив погоды в соседних городах и на ближайших метеорологических станциях:

Погода в Посьете (Приморский край, Россия) (36 км)
Погода в Сонбонге (КНДР) (72 км)
Погода в Барабаше (Приморский край, Россия) (74 км)
Погода на Мысе Назимова (Приморский край, Россия) (79 км)
Погода в Владивостоке (Приморский край, Россия) (84 км)
Погода в Находке (Приморский край, Россия) (132 км)
Погода в Многоудобном (Приморский край, Россия) (144 км)
Погода в Чхонджине (КНДР) (144 км)
Погода в Яньцзи (Гирин, Китай) (145 км)
Погода в Тимирязевском (Приморский край, Россия) (158 км)

Пояснения к столбцам:

Ветер - указаны скорость ветра в м/с - средняя за 10 мин, порывы в срок и между сроками (в фигурных скобках) и направление, откуда дует ветер: С - северный, СВ - северо-восточный, В - восточный, ЮВ - юго-восточный, Ю - южный, ЮЗ - юго-западный, З - западный, СЗ - северо-западный.
Видимость - горизонтальная дальность видимости в метрах или километрах. При видимости от 1 до 10 км при отсутствии осадков обычно наблюдается дымка, при ухудшении видимости до 1 км и менее - туман. В сухую погоду видимость может ухудшаться дымом, пылью или мглою.
Явления - указаны атмосферные явления, наблюдавшиеся в срок или в последний час перед сроком; фигурными скобками обозначены явления, наблюдавшиеся между сроками (за 1-3 часа до срока); квадратными скобками обозначены град или гололедные отложения с указанием их диаметра в мм.
Облачность - указаны через наклонную черту общая и нижняя облачность в баллах и высота нижней границы облаков в метрах; квадратными скобками обозначены формы облаков: Ci - перистые, Cs - перисто-слоистые, Cc - перисто-кучевые, Ac - высококучевые, As - высокослоистые, Sc - слоисто-кучевые, Ns - слоисто-дождевые, Cu - кучевые, Cb - кучево-дождевые. Подробнее классификацию облаков см. в Атласе облаков (PDF).
T - Температура воздуха - температура, измеренная на высоте 2 м над землей.
Td - Температура точки росы - температура, при понижении до которой содержащийся в воздухе водяной пар достигнет насыщения.
f - Относительная влажность воздуха - влажноcть воздуха, измеренная на высоте 2 м над землей.
Te - Эффективная температура - температура, которую ощущает одетый по сезону человек в тени. Характеристика душности погоды. При расчете учитывается влияние влажности воздуха и скорости ветра на теплоощущения человека.
Tes - Эффективная температура на солнце - температура, которую ощущает человек, с поправкой на солнечный нагрев. Характеристика знойности погоды. Зависит от высоты солнца над горизонтом, облачности и скорости ветра. Ночью, в пасмурную погоду, а также при ветре 12 м/с и более поправка равна нулю.
P - Атмосферное давление - приведенное к уровню моря атмосферное давление.
Po - Атмосферное давление - измеренное на уровне метеостанции атмосферное давление.
Tmin - Минимальная температура - минимум температуры воздуха на высоте 2 м над землей.
Tmax - Максимальная температура - максимум температуры воздуха на высоте 2 м над землей.
R - Количество осадков - Количество выпавших осадков за период времени, мм. При наведении курсора мыши на число - период времени, за который выпало указанное количество осадков.
R24 - Количество осадков - Количество выпавших осадков за 24 часа, мм.
S - Снежный покров - Высота снежного покрова, см. При наведении курсора мыши на число - состояние снежного покрова и степень покрытия местности в баллах.